Terug naar catalogus

COSMOS 1823 DEB

ActiefLEO
NORAD 39819·DEBRIS·🇷🇺 Russia

Gelanceerd Feb 20, 1987 vanaf Plesetsk Cosmodrome

Loading…

Volgende Passages (komende 24 uur)

TLE

VerouderdSource: Space-Track

Epoch: Sep 1, 2026, 23:54 UTC

1 39819U 87020ET  26244.99636718  .00000072  00000-0  63726-3 0  9990
2 39819  73.6762 336.1173 0027138 332.3892  27.5710 12.43301921556507

Volg COSMOS 1823 DEB in realtime met AllMySat

Download on the App Store